Delta Virtual Airport Information Service

Albuquerque International Airport

ICAO: KABQ Country: United States
Latitude: 35.0402 Longitude: -106.609
Latest Arrival : SWA1310 (B) (KPHX-KABQ) Latest Departure : SWA3088 (1B) (KABQ-KLAS)


WX CaptureLIVE
Data provided by noaa.gov | Fetched at 02:54:14

METAR : KABQ 300652Z 34010KT 10SM CLR 02/M12 A3016 RMK AO2 SLP196 T00171117 401281011

TAF : KABQ 300652Z 34010KT 10SM CLR 02/M12 A3016 RMK AO2 SLP196 T00171117 401281011


Runway Data for KABQ
Data provided by openaviationdata.com

Runway ID Mag Var Hdg Length Elevation Surface ILS Freq ILS Id ILS Slope
3 11 33° 10001 ft 5311 ft Concrete 111.5 IBZY 3
8 11 79° 13774 ft 5311 ft Concrete 111.9 ISPT 3
12 11 117° 5998 ft 5311 ft Concrete -- -- --
17 11 172° 10013 ft 5311 ft Asphalt -- -- --
21 11 213° 10001 ft 5311 ft Concrete -- -- --
26 11 259° 13774 ft 5311 ft Concrete -- -- --
30 11 297° 5998 ft 5311 ft Concrete -- -- --
35 11 352° 10013 ft 5311 ft Asphalt -- -- --

Albuquerque International Airport, United States
Use only for reference purposes



Not for navigational purposes.